Regional Weather Roundup
Issued by NWS

Home | Current Version | Previous Version | Graphics & Text | Print | Product List | Glossary On
Versions: 1 2 3 4 5 6 7 8 9 10 11 12 13 14 15 16 17 18 19 20 21 22 23 24 25 26 27 28 29 30 31 32 33 34 35 36 37 38 39 40 41 42 43 44 45 46 47 48 49 50
000
ASUS43 KMPX 290101
RWRMN
WEATHER ROUNDUP FOR MINNESOTA
NATIONAL WEATHER SERVICE TWIN CITIES/CHANHASSEN MN
700 PM CST WED JAN 28 2015


NOTE: "FAIR" INDICATES FEW OR NO CLOUDS BELOW 12,000 FEET WITH NO
SIGNIFICANT WEATHER AND/OR OBSTRUCTIONS TO VISIBILITY. N/A MEANS
CURRENT SKY AND/OR WEATHER CONDITIONS ARE NOT AVAILABLE.

MNZ060>063-068>070-290200-
   Twin Cities Metro

CITY           SKY/WX    TMP DP  RH WIND       PRES   REMARKS
TWIN CITIES    FRZ DRZL  31  27  85 E8        29.82R FOG     WCI  23
ST PAUL        CLOUDY    31  27  85 E7        29.83S FOG     WCI  24
CRYSTAL        CLOUDY    31  28  89 E5        29.81S FOG     WCI  26
LAKEVILLE      MOCLDY    28  28 100 E5        29.81R FOG     WCI  23
EDEN PRAIRIE   CLOUDY    31  28  89 E3        29.81R FOG
SOUTH ST PAUL  MOCLDY    32  28  83 CALM      29.82R HAZE
LAKE ELMO      CLOUDY    32  28  86 E3        29.83R
$$
MNZ001>005-007-008-013>017-022>024-027-028-290200-
   Northwest Minnesota

CITY           SKY/WX    TMP DP  RH WIND       PRES   REMARKS
BEMIDJI        LGT RAIN  31  31  99 CALM      29.81R
HALLOCK        CLOUDY    25  23  93 NW21G28   29.93R WCI  10
ROSEAU         LGT SNOW  34  28  80 NW13      29.85R WCI  25
WARROAD        CLOUDY    32  28  86 NW8       29.85R FOG     WCI  25
THIEF RVR FALL CLOUDY    34  30  86 NW14      29.86R WCI  24
CROOKSTON      CLOUDY    32  32 100 N28       29.91R FOG     WCI  18
FOSSTON        MIX PCPN  30  30 100 NW8       29.84R WCI  23
DETROIT LAKES  CLOUDY    32  32 100 NW8       29.84R FOG     WCI  25
MOORHEAD       CLOUDY    34  34 100 NW13      29.89R FOG     WCI  25
PARK RAPIDS    FOG       32  31  96 W3        29.81R VSB 1/2
MAHNOMEN       CLOUDY    32  32  99 NW9       29.83R FOG     WCI  24
$$
MNZ006-009>011-018-025>026-290200-
   North Central Minnesota

CITY           SKY/WX    TMP DP  RH WIND       PRES   REMARKS
BAUDETTE       CLOUDY    32  30  92 CALM      29.81R FOG
FLAG ISLAND    RAIN      28  28 100 NW9       29.84R WCI  20
INTL FALLS     CLOUDY    27  26  96 CALM      29.81S FOG
WASKISH        CLOUDY    32  30  93 CALM      29.82R FOG
BIG FORK       MIX PCPN  28  27  93 CALM      29.82R
LONGVILLE      FOG       28  28 100 CALM      29.82R VSB 1
GRAND RAPIDS   CLOUDY    27  25  93 S6        29.82R VSB 1   WCI  20
CRANE LAKE     FOG       25  25 100 CALM      29.84S VSB 1
ORR            CLOUDY    25  23  93 CALM      29.80R FOG
COOK           CLOUDY    25  25 100 CALM      29.82S FOG
WALKER         FOG       30  30  99 CALM      29.82R VSB 1/2
$$
MNZ012-019>021-037-290200-
   Northeast Minnesota

CITY           SKY/WX    TMP DP  RH WIND       PRES   REMARKS
DULUTH         CLOUDY    29  23  78 S3        29.82S HAZE
ELY            CLOUDY    27  23  86 SW3       29.81S
HIBBING        CLOUDY    28  23  81 CALM      29.82R
EVELETH        CLOUDY    27  25  93 CALM      29.83S
DULUTH HARBOR  CLOUDY    30  27  86 CALM      29.86S
TWO HARBORS    CLOUDY    30  25  80 CALM      29.82S
SILVER BAY     CLOUDY    28  25  86 CALM      29.81F
GRAND MARAIS     N/A     29  25  85 CALM      29.84F
G MARAIS ARPRT CLOUDY    25  21  86 CALM      29.78F FOG
$$
MNZ029>031-032-039>041-046>048-054>057-064-290200-
   West Central Minnesota

CITY           SKY/WX    TMP DP  RH WIND       PRES   REMARKS
FERGUS FALLS   FOG       32  32 100 W5        29.87R VSB 1/4 WCI  27
WHEATON        CLOUDY    32  30  93 NW7       29.88R FOG     WCI  26
MORRIS         FOG       32  32 100 CALM      29.83R VSB<1/4
ALEXANDRIA     FOG       31  30  96 CALM      29.83R VSB 3/4
ELBOW LAKE     FOG       31  31 100 W3        29.84R VSB 1/4
WADENA         FOG       30  28  93 CALM      29.82R VSB 3/4
GLENWOOD       CLOUDY    30  30 100 CALM      29.83R FOG
APPLETON       FOG       34  32  93 N3        29.84R VSB 1/2
BENSON         FOG       32  32 100 CALM      29.83R VSB 3/4
ORTONVILLE     CLOUDY    34  30  86 N5        29.84R FOG     WCI  30
MADISON        MOCLDY    37  36  93 N5        29.83R FOG
WILLMAR        FOG       34  30  86 NE3       29.83R VSB 1
$$
MNZ033>034-036-042>043-049>051-058-059-290200-
   Central Minnesota

CITY           SKY/WX    TMP DP  RH WIND       PRES   REMARKS
ST CLOUD       CLOUDY    29  28  96 NE3       29.83R FOG
SAUK CENTRE    CLOUDY    30  30  99 CALM      29.83R FOG
PAYNESVILLE    CLOUDY    28  28 100 CALM      29.84R FOG
AITKIN         CLOUDY    30  25  80 CALM      29.82R HAZE
PINE RIVER     FOG       28  28 100 CALM      29.86R VSB 1
BRAINERD       CLOUDY    28  27  96 SW3       29.83R FOG
STAPLES        FOG       28  28 100 CALM      29.82R VSB 1
LONG PRAIRIE   CLOUDY    30  30 100 CALM      29.82S FOG
LITTLE FALLS   FOG       30  28  93 CALM      29.83S VSB 1
LITCHFIELD     CLOUDY    32  32 100 CALM      29.82R FOG
BUFFALO        CLOUDY    30  29  94 N3        29.84R FOG
MAPLE LAKE     CLOUDY    31  31  99 NE5       29.83R FOG     WCI  26
$$
MNZ037-044-045-052-053-290200-
   East Central Minnesota

CITY           SKY/WX    TMP DP  RH WIND       PRES   REMARKS
PRINCETON      CLOUDY    30  28  93 CALM      29.84R FOG
MORA           CLOUDY    28  25  86 CALM      29.85R
CAMBRIDGE      CLOUDY    30  25  80 CALM      29.82S HAZE
RUSH CITY      CLOUDY    30  26  86 CALM      29.84R
MOOSE LAKE     CLOUDY    30  27  86 CALM      29.83R FOG
HINCKLEY       CLOUDY    30  28  93 CALM      29.84R FOG
CLOQUET        CLOUDY    28  25  86 CALM      29.82S HAZE
MCGREGOR       CLOUDY    28  27  93 CALM      29.83S
$$
MNZ071>073-080-081-089-090-097-098-290200-
   Southwest Minnesota

CITY           SKY/WX    TMP DP  RH WIND       PRES   REMARKS
MONTEVIDEO     FOG       32  32 100 CALM      29.84R VSB 3/4
GRANITE FALLS  CLOUDY    32  32  98 CALM      29.83R FOG
CANBY          CLOUDY    34  32  94 NW5       29.84R FOG     WCI  30
MARSHALL       CLOUDY    34  28  80 CALM      29.82R
REDWOOD FALLS  FOG       33  32  96 CALM      29.81R VSB 1
OLIVIA         CLOUDY    32  32 100 CALM      29.81R FOG
PIPESTONE      CLOUDY    36  34  93 N12G18    29.77R
WINDOM         CLOUDY    34  32  93 CALM      29.78R FOG
WORTHINGTON    CLOUDY    32  30  93 N5        29.77R VSB 3/4 WCI  27
JACKSON        CLOUDY    32  32 100 NW5       29.76S FOG     WCI  27
TRACY          CLOUDY    34  32  94 CALM      29.79R FOG
SLAYTON        CLOUDY    32  32 100 CALM      29.78R FOG
$$
MNZ065>067-074>077-082>085-091>093-290200-
   South Central Minnesota

CITY           SKY/WX    TMP DP  RH WIND       PRES   REMARKS
MANKATO        CLOUDY    34  28  80 CALM      29.78S
NEW ULM        CLOUDY    34  30  86 CALM      29.80R FOG
ST JAMES       CLOUDY    34  32  93 NW3       29.79R FOG
FAIRMONT       CLOUDY    34  28  80 N5        29.75S WCI  30
GLENCOE        FOG       33  33  99 CALM      29.80R VSB 1
FARIBAULT      CLOUDY    34  30  86 CALM      29.79F FOG
OWATONNA       MOCLDY    34  30  86 SE5       29.77F FOG     WCI  30
WASECA         CLOUDY    32  30  93 E3        29.79S FOG
ALBERT LEA     CLOUDY    34  32  93 SE6       29.75S FOG     WCI  29
$$
MNZ078>079-086>088-094>096-290200-
   Southeast Minnesota

CITY           SKY/WX    TMP DP  RH WIND       PRES   REMARKS
ROCHESTER      CLOUDY    32  27  81 SE13      29.78R WCI  22
RED WING       CLOUDY    32  27  80 E3        29.83S
STANTON        CLOUDY    32  28  86 E6        29.79S WCI  26
DODGE CENTER   CLOUDY    32  30  93 SE7       29.78S FOG     WCI  26
WINONA         CLOUDY    34  27  75 SE5       29.83R WCI  30
AUSTIN         CLOUDY    34  28  80 SE6       29.76R WCI  29
PRESTON        CLOUDY    31  27  83 S12G18    29.78R WCI  22
$$
ABBREVIATIONS USED IN REMARKS
   TC - TEMPERATURES IN CELSIUS
  WCI - WIND CHILL INDEX
   HX - HEAT INDEX
  VSB - VISIBILITY
$$



USA.gov is the U.S. government's official web portal to all federal, state and local government web resources and services.